Weather History for Pineville, WV

Change the Weather History Date:

Thursday, December 27, 2012

  Actual Average (KBKW) Record (KBKW)
Temperature  
Mean Temperature 32 °F 32 °F  
Max Temperature 32 °F 40 °F 67 °F (1959)
Min Temperature 30 °F 24 °F -5 °F (1948)
Degree Days  
Heating Degree Days 34 33  
Month to date heating degree days 820  
Since 1 July heating degree days 1960  
Cooling Degree Days 0 0  
Month to date cooling degree days 0  
Year to date cooling degree days 557  
Moisture  
Dew Point 28 °F    
Average Humidity 89    
Maximum Humidity 97    
Minimum Humidity 85    
Precipitation  
Precipitation 0.00 in 0.10 in 1.11 in (1990)
Month to date precipitation 2.63  
Year to date precipitation 40.82  
Snow  
Snow 0.00 in - - ()
Month to date snowfall  
Since 1 September snowfall  
Snow Depth -    
Sea Level Pressure  
Sea Level Pressure 30.04 in    
Wind  
Wind Speed - (North)    
Max Wind Speed -    
Max Gust Speed -    
Visibility 9 miles    
Events Snow    
T = Trace of Precipitation, MM = Missing Value Source: NWS Daily Summary

Daily Weather History Graph

Daily Weather History Graph

Search for Another Location

Airport:

Trip Planner

Search our weather history database for the weather conditions in past years. The results will help you decide how hot, cold, wet, or windy it might be!

Date:

Astronomy

Dec. 27, 2012 Rise Set
Actual Time 7:40 AM EST 5:15 PM EST
Civil Twilight 7:10 AM EST 5:44 PM EST
Nautical Twilight 6:38 AM EST 6:17 PM EST
Astronomical Twilight 6:06 AM EST 6:49 PM EST
Moon 4:56 PM EST (12/27) 6:50 AM EST (12/27)
Length of Visible Light 10h 33m
Length of Day
9h 35m
Full, 100% of the Moon is Illuminated
Dec 27
Full
Dec 28
Full
Jan 4
Last Quarter
Jan 11
New
Jan 18
First Quarter

Hourly Weather History & Observations

Time (EST) Temp. Dew Point Humidity Pressure Visibility Wind Dir Wind Speed Gust Speed Precip Events Conditions
12:15 AM 33.6 °F 32.0 °F 94% 29.79 in 5.0 mi North - - N/A Snow Light Snow
12:35 AM 33.3 °F 32.0 °F 95% 29.81 in 5.0 mi North - - N/A Snow Light Snow
12:55 AM 32.9 °F 31.8 °F 96% 29.82 in 7.0 mi North - - N/A Snow Light Snow
1:15 AM 32.5 °F 31.8 °F 97% 29.83 in 4.0 mi North - - N/A Snow Light Snow
1:35 AM 32.4 °F 31.5 °F 96% 29.83 in 5.0 mi North - - N/A   Overcast
1:55 AM 32.2 °F 31.1 °F 96% 29.85 in 5.0 mi North - - N/A   Overcast
2:15 AM 32.0 °F 31.1 °F 96% 29.86 in 5.0 mi North - - N/A   Overcast
2:35 AM 32.0 °F 31.1 °F 96% 29.86 in 7.0 mi North - - N/A Snow Light Snow
2:55 AM 32.0 °F 31.1 °F 96% 29.87 in 5.0 mi North - - N/A Snow Light Snow
3:15 AM 32.0 °F 31.1 °F 96% 29.89 in 7.0 mi North - - N/A Snow Light Snow
3:35 AM 32.0 °F 30.9 °F 96% 29.89 in 10.0 mi North - - N/A   Overcast
3:55 AM 32.0 °F 30.2 °F 93% 29.91 in 10.0 mi North - - N/A   Overcast
4:15 AM 32.0 °F 29.7 °F 91% 29.91 in 10.0 mi North - - N/A   Overcast
4:35 AM 32.0 °F 29.8 °F 92% 29.93 in 10.0 mi North - - N/A   Overcast
4:55 AM 31.8 °F 29.3 °F 90% 29.94 in 10.0 mi North - - N/A   Overcast
5:15 AM 31.8 °F 29.1 °F 90% 29.94 in 10.0 mi North - - N/A   Overcast
5:35 AM 32.0 °F 28.6 °F 87% 29.95 in 10.0 mi North - - N/A   Overcast
5:55 AM 32.0 °F 28.8 °F 88% 29.96 in 10.0 mi North - - N/A   Overcast
6:15 AM 32.0 °F 28.8 °F 88% 29.98 in 10.0 mi North - - N/A   Overcast
6:35 AM 32.0 °F 28.8 °F 88% 29.99 in 10.0 mi North - - N/A   Overcast
6:55 AM 31.6 °F 28.4 °F 88% 30.01 in 10.0 mi North - - N/A   Overcast
7:35 AM 31.6 °F 28.2 °F 87% 30.02 in 10.0 mi North - - N/A   Overcast
7:55 AM 31.5 °F 28.0 °F 87% 30.02 in 10.0 mi North - - N/A   Overcast
8:15 AM 31.1 °F 27.3 °F 86% 30.03 in 10.0 mi North - - N/A   Overcast
8:35 AM 31.1 °F 27.5 °F 87% 30.04 in 10.0 mi North - - N/A   Overcast
8:55 AM 31.1 °F 28.2 °F 89% 30.04 in 10.0 mi North - - N/A   Overcast
9:15 AM 31.1 °F 28.2 °F 89% 30.06 in 10.0 mi North - - N/A   Overcast
9:35 AM 30.9 °F 27.9 °F 88% 30.06 in 7.0 mi North - - N/A   Overcast
9:55 AM 30.9 °F 28.2 °F 90% 30.08 in 7.0 mi North - - N/A   Overcast
10:15 AM 30.9 °F 28.4 °F 90% 30.08 in 7.0 mi North - - N/A   Overcast
10:35 AM 30.9 °F 28.4 °F 90% 30.08 in 7.0 mi North - - N/A   Overcast
10:55 AM 30.7 °F 28.2 °F 90% 30.08 in 7.0 mi North - - N/A   Overcast
11:15 AM 30.7 °F 28.4 °F 91% 30.08 in 7.0 mi North - - N/A   Overcast
11:35 AM 30.7 °F 28.4 °F 91% 30.08 in 5.0 mi North - - N/A   Overcast
11:55 AM 30.7 °F 27.9 °F 89% 30.08 in 7.0 mi North - - N/A   Overcast
12:15 PM 30.9 °F 27.7 °F 88% 30.08 in 10.0 mi North - - N/A   Overcast
12:35 PM 30.4 °F 27.3 °F 88% 30.08 in 7.0 mi North - - N/A   Overcast
12:55 PM 30.6 °F 27.5 °F 88% 30.07 in 10.0 mi North - - N/A   Overcast
1:15 PM 30.2 °F 27.1 °F 88% 30.07 in 10.0 mi North - - N/A   Overcast
1:35 PM 30.2 °F 27.3 °F 89% 30.06 in 7.0 mi North - - N/A   Overcast
1:55 PM 30.6 °F 27.3 °F 88% 30.06 in 7.0 mi North - - N/A   Overcast
2:15 PM 30.2 °F 27.0 °F 88% 30.06 in 10.0 mi North - - N/A   Overcast
2:35 PM 30.2 °F 27.0 °F 88% 30.08 in 10.0 mi North - - N/A   Overcast
2:55 PM 30.2 °F 26.4 °F 86% 30.08 in 10.0 mi North - - N/A   Overcast
3:15 PM 30.4 °F 26.2 °F 85% 30.09 in 10.0 mi North - - N/A   Overcast
3:35 PM 30.2 °F 26.4 °F 86% 30.09 in 7.0 mi North - - N/A   Overcast
3:55 PM 30.2 °F 26.2 °F 85% 30.10 in 7.0 mi North - - N/A   Overcast
4:15 PM 30.2 °F 26.4 °F 86% 30.13 in 7.0 mi North - - N/A   Overcast
4:35 PM 30.2 °F 26.6 °F 86% 30.12 in 5.0 mi North - - N/A   Overcast
4:55 PM 30.2 °F 27.0 °F 88% 30.12 in 7.0 mi North - - N/A   Overcast
5:15 PM 30.0 °F 27.0 °F 88% 30.12 in 10.0 mi North - - N/A   Overcast
5:35 PM 30.0 °F 27.1 °F 89% 30.13 in 10.0 mi North - - N/A   Overcast
5:55 PM 30.0 °F 27.1 °F 89% 30.15 in 10.0 mi North - - N/A   Overcast
6:15 PM 30.2 °F 27.3 °F 89% 30.15 in 10.0 mi North - - N/A   Overcast
6:35 PM 30.2 °F 27.5 °F 90% 30.15 in 10.0 mi North - - N/A   Overcast
6:55 PM 30.2 °F 27.5 °F 90% 30.15 in 10.0 mi North - - N/A   Overcast
7:35 PM 30.2 °F 27.0 °F 88% 30.15 in 10.0 mi North - - N/A   Overcast
7:55 PM 30.2 °F 26.6 °F 86% 30.15 in 10.0 mi North - - N/A   Overcast
8:55 PM 30.2 °F 27.0 °F 88% 30.15 in 10.0 mi North - - N/A   Overcast
9:15 PM 30.2 °F 26.4 °F 86% 30.15 in 10.0 mi North - - N/A   Overcast
9:35 PM 30.2 °F 26.6 °F 86% 30.16 in 10.0 mi North - - N/A   Overcast
9:55 PM 30.2 °F 26.4 °F 86% 30.16 in 10.0 mi North - - N/A   Overcast
10:15 PM 30.2 °F 26.8 °F 87% 30.16 in 10.0 mi North - - N/A   Overcast
10:35 PM 30.2 °F 26.4 °F 86% 30.16 in 10.0 mi North - - N/A   Overcast
10:55 PM 30.2 °F 26.4 °F 86% 30.16 in 10.0 mi North - - N/A   Overcast
11:15 PM 30.2 °F 26.6 °F 86% 30.16 in 10.0 mi North - - N/A   Overcast
11:35 PM 30.2 °F 26.6 °F 86% 30.15 in 10.0 mi North - - N/A   Overcast
11:55 PM 30.2 °F 26.6 °F 86% 30.15 in 10.0 mi North - - N/A   Overcast